Flag for U.S.A. Weather past 2 weeks in Bismarck, North Dakota, U.S.A.

Now
40 °F

Clear.


Feels Like: 33 °F
Forecast: 32 / 44 °F
Wind: 12 mph from Northwest

Location: Bismarck Municipal Airport

Current Time: Jan 26, 2015 at 2:36:55 AM

Latest Report: Jan 26, 2015 at 1:52 AM


Visibility: 10 mi

Pressure: 29.84 "Hg

Humidity: 73%

Dew point: 32 °F

Location of BismarckLocation

Historic Weather in Bismarck — Graph

°F

Bismarck temperature yesterday

Maximum temperature yesterday: 37 °F (at 12:52 AM)
Minimum temperature yesterday: 34 °F (at 11:52 PM)
Average temperature yesterday: 36 °F

Past Weeks' High & Low Weather Summary

 TemperatureHumidityPressure
High46 °F (Jan 23, 3:52 PM)96% (Jan 13, 9:52 PM)30.89 "Hg (Jan 13, 9:52 PM)
Low-18 °F (Jan 12, 7:52 AM)49% (Jan 11, 10:52 PM)29.57 "Hg (Jan 17, 12:52 AM)
Average25 °F78%30.08 "Hg
* Reported Jan 11 12:52 AM — Jan 26 12:52 AM, Bismarck, Weather by CustomWeather, © 2014

Note: Actual official high and low records may vary slightly from our data, if they occured in-between our weather recording intervals... More about our weather records

Advertising

Bismarck weather history for previous 24 hours

 ConditionsComfort  
Time TempWeatherWind HumidityBarometerVisibility
12:52 AM
Jan 26
38 °FClear.12 mph79%29.83 "Hg10 mi
11:52 PM
Jan 25
34 °FClear.5 mph85%29.82 "Hg10 mi
10:52 PM35 °FClear.No wind82%29.83 "Hg10 mi
9:52 PM37 °FClear.5 mph79%29.83 "Hg10 mi
8:52 PM37 °FClear.3 mph79%29.87 "Hg10 mi
7:52 PM36 °FClear.3 mph85%29.89 "Hg10 mi
6:52 PM36 °FPassing clouds.5 mph85%29.93 "Hg10 mi
5:52 PM36 °FOvercast.3 mph85%29.94 "Hg10 mi
4:52 PM37 °FOvercast.5 mph82%29.96 "Hg10 mi
3:52 PM37 °FOvercast.5 mph82%29.98 "Hg10 mi
2:52 PM37 °FOvercast.3 mph82%29.98 "Hg10 mi
1:52 PM36 °FOvercast.7 mph82%30.02 "Hg10 mi
12:52 PM36 °FOvercast.9 mph85%30.04 "Hg7 mi
12:02 PM35 °FMostly cloudy.10 mph88%30.00 "Hg9 mi
11:52 AM36 °FMostly cloudy.9 mph82%30.05 "Hg9 mi
10:52 AM36 °FOvercast.3 mph82%30.06 "Hg10 mi
9:52 AM35 °FOvercast.6 mph88%30.06 "Hg10 mi
8:52 AM35 °FMore clouds than sun.9 mph85%30.04 "Hg10 mi
7:52 AM35 °FLow clouds.8 mph88%30.03 "Hg9 mi
6:52 AM36 °FFog.9 mph85%30.01 "Hg6 mi
5:52 AM37 °FOvercast.10 mph82%30.00 "Hg10 mi
4:52 AM37 °FOvercast.13 mph82%29.99 "Hg10 mi
3:52 AM37 °FOvercast.10 mph82%29.97 "Hg10 mi
2:52 AM37 °FOvercast.10 mph82%29.95 "Hg10 mi
Weather by CustomWeather, © 2014

See weather overviewHow to use our weather pages